User: anonymous   Login
Location: Shades State Park
(39.9310°N, 87.0690°W)
Time: 22:55:30
(UTC-04:00)
Language:

H-2A R/B - Orbit

View from above orbital plane
View from above orbital plane
View from above satellite
View from above satellite

Ground track
Ground track

The orbit data is extracted from the following two-line orbital elements,

1 27601U 02056E   15185.87010675  .00000129  00000-0  62893-4 0  9997
2 27601 098.4533 264.1222 0071194 247.5088 223.3757 14.31614636655746
Epoch (UTC): 04 July 2015 20:52:57
Eccentricity: 0.0071194
inclination: 98.4533°
perigee height: 735 km
apogee height: 837 km
right ascension of ascending node: 264.1222°
argument of perigee: 247.5088°
revolutions per day: 14.31614636
mean anomaly at epoch: 223.3757°
orbit number at epoch: 65574

The dashed part of the orbit path shows where the satellite is in the earth's shadow,  

DLR